COSMOS 2251 DEB, 34481

Orbit data source: Space-Track

COSMOS 2251 DEB, 34481 is space debris in LEO originally from a launch on Wed, 16 Jun 1993 UTC launched from the Plesetsk Missile And Space Complex (PKMTR). The debris from Iridium 33, an American commercial communications satellite, has been tracked extensively since its accidental collision with the defunct Russian satellite Cosmos 2251 in 2009. This event, occurring at high speed in low Earth orbit (LEO), generated thousands of pieces of space debris, significantly increasing the risk of further collisions. The Iridium 33 debris cloud has impacted space traffic management and orbital debris mitigation strategies, making it a subject of ongoing study in space situational awareness.

Loading next visibility...
Identifier
34481, 1993-036UA
Orbit
LEO
Country
Flag of CISCIS
Related business
Manufacturer
Unknown
Mission
Spacecraft
Bus & Motor
Unknown
Mass
Unknown
Launch date (UTC)
1993-06-16 (33 years ago)
Launch vehicle
Unknown
Launch site
Plesetsk Missile And Space Complex (PKMTR)
Object type
Payload
Rocket body
Debris
Shape & HBR
Unknown shape, 0.1 m
Radar Cross Section
Small (<0.1 m²)

Expand to show TLE details & history
Last TLE update: 6 hours ago

TLE from 6 hours ago
0 COSMOS 2251 DEB
1 34481U 93036UA  26121.54822882  .00001328  00000-0  48117-3 0  9990
2 34481  73.9770 157.2114 0071117 297.5566 215.7783 14.33001567894513
Epoch: 2026-05-01T13:09Z
TLE epoch observation values (Epoch: 2026-05-01T13:09:26.970Z)
Latitude
26.04276°
Longitude
-87.65403°
Altitude
826 km
Speed
7.421 km/s
True Right ascension
21h 56m 44s
True Declination
25° 54' 31"
Sunlit
Object was in daylight at epoch
Visualization orbit readout
Latitude
Unknown
Longitude
Unknown
Altitude
Unknown
Speed
Unknown
Apparent Right ascension
Unknown
Apparent Declination
Unknown
Sunlit
N/A
Visualization observer readout
Local Sidereal Time
03:05:04
Azimuth
Unknown
Elevation
Unknown
Doppler factor
Unknown
Orbital elements
Apogee altitude
830.249 km
Perigee altitude
728.446 km
Semi-major axis
7,157.485 km
Eccentricity
0.00711
Inclination
73.977°
RAAN
157.2114°
Arg. of periapsis
297.5566°
True anomaly
215.30526°
Mean anomaly
215.7783°
Eccentric anomaly
215.54144°
Mean motion
3.58429 °/min
Orbital period
100.44 mins
BSTAR
0.00048117
Loading maneuver chart data...
Computing Atmospheric mass density...

Documentation

Showing up to 5 results
|